Date,TemperatureHighF,TemperatureAvgF,TemperatureLowF,DewpointHighF,DewpointAvgF,DewpointLowF,HumidityHigh,HumidityAvg,HumidityLow,PressureMaxIn,PressureMinIn,WindSpeedMaxMPH,WindSpeedAvgMPH,GustSpeedMaxMPH,PrecipitationSumIn
2014-1-1,36,30,27,33,29,26,99,96,87,0.00,40.00,8,1,12,0.00
2014-1-2,32,32,32,32,32,30,100,98,91,0.00,40.00,4,1,7,0.01
2014-1-3,30,29,28,29,28,28,99,97,95,0.00,40.00,0,0,0,0.00
2014-1-4,27,26,25,26,23,-100,98,95,93,0.00,40.00,1,0,3,0.00
2014-1-5,32,31,27,32,31,26,99,97,92,0.00,40.00,3,2,7,0.00
2014-1-6,32,32,32,32,32,32,100,100,100,0.00,40.00,0,0,0,0.00
2014-1-7,32,32,32,32,32,32,100,100,100,0.00,40.00,0,0,0,0.00
2014-1-8,32,25,32,30,-1,-100,100,88,80,0.00,40.00,4,2,9,0.00
2014-1-9,34,32,30,32,30,27,100,93,81,0.00,40.00,7,3,11,0.00
2014-1-10,34,33,32,31,30,29,97,91,85,0.00,40.00,6,4,10,0.00
2014-1-11,30,22,18,30,18,-100,99,92,88,0.00,40.00,1,1,4,0.00
2014-1-12,27,21,18,26,18,14,99,88,82,0.00,40.00,5,2,8,0.00
2014-1-13,32,30,25,32,30,24,100,99,98,0.00,40.00,2,0,4,0.00
2014-1-14,36,32,32,33,32,28,100,98,78,0.00,40.00,7,1,12,0.00
2014-1-15,39,36,32,33,30,26,96,80,69,0.00,40.00,10,6,15,0.01
2014-1-16,41,36,32,38,34,30,100,91,79,0.00,40.00,11,4,15,0.01
2014-1-17,34,32,30,34,32,30,100,100,99,0.00,40.00,1,0,4,0.01
2014-1-18,37,34,30,34,31,-100,100,90,74,0.00,40.00,7,3,12,0.01
2014-1-19,36,33,32,33,31,27,99,92,75,0.00,40.00,3,1,7,0.00
2014-1-20,36,33,32,34,31,25,100,92,69,0.00,40.00,6,1,12,0.01
2014-1-21,36,33,32,33,31,26,100,92,68,0.00,40.00,6,1,15,0.00
2014-1-22,39,34,32,38,34,32,100,98,92,0.00,40.00,4,1,9,0.01
2014-1-23,41,38,36,41,38,35,100,99,95,0.00,40.00,3,2,8,0.01
2014-1-24,39,33,30,38,33,30,100,98,85,0.00,40.00,2,1,4,0.00
2014-1-25,34,30,30,33,29,-100,100,99,89,0.00,40.00,1,0,3,0.00
2014-1-26,43,30,28,33,29,27,100,96,59,0.00,40.00,10,1,18,0.00
2014-1-27,41,35,28,32,29,26,99,81,55,0.00,40.00,11,3,19,0.00
2014-1-28,34,32,28,34,32,28,100,99,99,0.00,40.00,1,0,3,0.00
2014-1-29,37,34,32,36,32,29,100,95,70,0.00,40.00,3,0,8,0.01
2014-1-30,41,36,30,29,27,22,86,68,56,0.00,40.00,4,2,8,0.00
2014-1-31,32,28,27,21,19,17,71,66,60,0.00,40.00,9,8,15,0.00
2014-2-1,34,32,30,22,18,-100,65,59,54,0.00,40.00,7,5,13,0.00
2014-2-2,32,30,27,21,17,13,68,58,49,0.00,40.00,6,4,11,0.00
2014-2-3,27,22,18,14,11,8,67,61,54,0.00,40.00,8,4,15,0.00
2014-2-4,19,16,14,9,4,1,67,57,46,0.00,40.00,11,8,16,0.00
2014-2-5,19,17,16,4,3,1,60,54,49,0.00,40.00,11,8,16,0.00
2014-2-6,27,20,16,9,5,-2,68,53,30,0.00,40.00,10,2,17,0.00
2014-2-7,18,13,9,3,1,-2,61,56,49,0.00,40.00,12,7,17,0.00
2014-2-8,16,13,10,4,1,-2,60,56,51,0.00,40.00,8,5,16,0.00
2014-2-9,14,10,7,2,-5,-8,57,50,42,0.00,40.00,8,6,14,0.00
2014-2-10,7,4,3,-8,-12,-14,50,45,39,0.00,40.00,9,8,14,0.00
2014-2-11,3,0,-4,-12,-15,-18,55,48,38,0.00,40.00,9,5,14,0.00
2014-2-12,9,3,0,1,-11,-16,75,52,33,0.00,40.00,6,3,14,0.00
2014-2-13,18,12,5,16,7,-1,95,79,64,0.00,40.00,5,1,11,0.00
2014-2-14,27,23,19,24,18,11,98,83,69,0.00,40.00,9,3,15,0.00
2014-2-15,32,30,25,32,28,-100,100,96,94,0.00,40.00,1,0,4,0.00
2014-2-16,32,28,23,30,24,18,100,82,61,0.00,40.00,8,2,12,0.00
2014-2-17,32,28,23,28,22,17,95,80,67,0.00,40.00,6,2,13,0.00
2014-2-18,30,24,16,24,17,10,97,75,47,0.00,40.00,5,2,10,0.00
2014-2-19,32,18,5,11,4,-2,87,59,28,0.00,40.00,3,1,7,0.00
2014-2-20,28,11,3,11,5,0,91,79,40,0.00,40.00,4,1,6,0.00
2014-2-21,28,16,7,13,8,4,92,74,43,0.00,40.00,2,0,5,0.00
2014-2-22,19,16,12,3,-1,-100,55,49,45,0.00,40.00,8,6,15,0.00
2014-2-23,23,17,14,1,-2,-5,51,42,30,0.00,40.00,12,9,18,0.01
2014-2-24,23,21,18,1,-2,-4,43,37,33,0.00,40.00,12,10,18,0.00
2014-2-25,32,24,19,14,3,-5,73,43,22,0.00,40.00,10,5,16,0.00
2014-2-26,32,29,19,13,7,2,71,41,30,0.00,40.00,12,9,18,0.00
2014-2-27,32,30,25,10,8,6,48,40,37,0.00,40.00,13,9,19,0.00
2014-2-28,32,27,23,11,7,4,47,42,33,0.00,40.00,7,6,15,0.00
2014-3-1,27,22,16,6,-1,-100,46,38,29,0.00,40.00,11,7,20,0.00
2014-3-2,21,18,14,-2,-7,-10,42,33,27,0.00,40.00,9,5,14,0.00
2014-3-3,19,15,12,-6,-10,-15,40,31,22,0.00,40.00,9,4,14,0.00
2014-3-4,19,13,10,-5,-10,-13,39,35,28,0.00,40.00,5,3,12,0.00
2014-3-5,19,12,7,-4,-9,-13,44,38,27,0.00,40.00,9,6,18,0.00
2014-3-6,23,16,10,-3,-7,-12,40,34,27,0.00,40.00,8,6,16,0.00
2014-3-7,21,17,10,15,-1,-8,84,45,34,0.00,40.00,9,6,16,0.00
2014-3-8,25,20,19,24,15,-100,98,82,67,0.00,40.00,12,5,18,0.00
2014-3-9,37,31,25,32,28,24,98,88,70,0.00,40.00,8,3,12,0.01
2014-3-10,39,36,32,33,28,24,99,73,58,0.00,40.00,8,6,12,0.00
2014-3-11,36,33,32,34,32,30,100,96,85,0.00,40.00,6,1,10,0.01
2014-3-12,39,34,32,32,29,23,100,84,63,0.00,40.00,8,3,13,0.00
2014-3-13,37,33,32,34,31,25,99,91,71,0.00,40.00,5,1,9,0.00
2014-3-14,37,35,32,33,28,22,100,75,58,0.00,40.00,7,3,11,0.00
2014-3-15,37,33,28,28,21,-100,87,63,43,0.00,40.00,6,2,9,0.00
2014-3-16,36,32,30,27,24,20,85,70,60,0.00,40.00,7,3,11,0.00
2014-3-17,32,31,28,31,26,19,97,81,63,0.00,40.00,6,3,10,0.00
2014-3-18,37,34,32,32,29,23,99,83,55,0.00,40.00,5,2,9,0.00
2014-3-19,39,32,27,31,25,20,98,76,51,0.00,40.00,4,1,8,0.00
2014-3-20,36,31,27,22,14,-100,65,51,34,0.00,40.00,5,2,11,0.00
2014-3-21,32,29,25,19,11,5,62,48,31,0.00,40.00,7,3,12,0.00
2014-3-22,32,26,21,10,4,-100,51,40,28,0.00,40.00,7,4,14,0.00
2014-3-23,34,27,23,7,4,0,48,39,28,0.00,40.00,8,4,13,0.00
2014-3-24,32,28,21,7,4,2,43,35,30,0.00,40.00,6,5,13,0.00
2014-3-25,36,28,23,9,1,-4,40,31,24,0.00,40.00,7,5,13,0.00
2014-3-26,34,28,25,11,3,-1,48,35,24,0.00,40.00,6,4,12,0.00
2014-3-27,32,26,19,10,2,-2,48,37,23,0.00,40.00,5,3,10,0.00
2014-3-28,36,28,21,12,2,-2,49,34,22,0.00,40.00,6,3,10,0.00
2014-3-29,39,32,28,12,3,-100,43,30,21,0.00,40.00,7,4,14,0.00
2014-3-30,41,33,23,22,9,2,81,40,22,0.00,40.00,6,4,11,0.00
2014-3-31,46,29,18,25,16,6,87,65,21,0.00,40.00,3,1,7,0.00
2014-4-1,45,32,21,25,17,9,88,59,23,0.00,40.00,4,1,7,0.00
2014-4-2,41,32,23,25,19,11,88,64,30,0.00,40.00,4,1,10,0.00
2014-4-3,45,34,27,24,14,5,85,47,24,0.00,40.00,3,2,8,0.00
2014-4-4,39,30,21,30,21,18,91,71,46,0.00,40.00,5,2,9,0.00
2014-4-5,41,34,30,34,30,-100,99,88,67,0.00,40.00,3,1,6,0.00
2014-4-6,43,36,32,34,32,29,98,89,62,0.00,40.00,5,2,9,0.01
2014-4-7,37,35,32,35,31,23,100,88,65,0.00,40.00,4,2,10,0.01
2014-4-8,37,33,32,32,31,25,100,90,64,0.00,40.00,6,2,9,0.00
2014-4-9,36,33,32,32,27,22,99,78,59,0.00,40.00,7,4,11,0.00
2014-4-10,32,31,28,32,25,15,100,78,49,0.00,40.00,4,1,9,0.01
2014-4-11,41,30,27,24,10,2,82,47,19,0.00,40.00,5,3,13,0.00
2014-4-12,46,30,19,26,12,-100,86,57,20,0.00,40.00,3,1,6,0.00
2014-4-13,48,35,25,26,20,12,90,62,23,0.00,40.00,4,1,6,0.00
2014-4-14,55,36,30,30,27,22,93,75,31,0.00,40.00,1,0,3,0.00
2014-4-15,54,40,28,38,28,20,97,67,28,0.00,40.00,3,1,7,0.00
2014-4-16,50,39,32,35,32,28,98,78,45,0.00,40.00,3,1,6,0.00
2014-4-17,46,41,32,38,32,29,99,72,53,0.00,40.00,6,3,10,0.00
2014-4-18,46,38,32,32,31,28,100,81,53,0.00,40.00,5,2,8,0.00
2014-4-19,52,38,30,32,24,-100,99,62,25,0.00,40.00,5,2,11,0.00
2014-4-20,48,40,32,36,31,23,97,73,36,0.00,40.00,4,2,8,0.00
2014-4-21,52,40,30,36,25,19,95,62,30,0.00,40.00,4,2,7,0.00
2014-4-22,55,40,30,37,30,24,98,73,31,0.00,40.00,3,1,8,0.00
2014-4-23,45,39,34,38,35,33,99,85,71,0.00,40.00,3,2,8,0.00